Location: Praha
(50.0830°N, 14.4670°E)
Time: 22:02:28
(UTC+01:00)

ISS - Visible Passes

Search period start: 11 December 2017 00:00
Search period end: 21 December 2017 00:00
Orbit: 402 x 407 km, 51.6° (Epoch: 11 December)

Date Brightness Start Highest point End Pass type
(mag) Time Alt. Az. Time Alt. Az. Time Alt. Az.
11 Dec -3.8 16:35:49 10° WNW 16:39:07 66° N 16:42:23 10° E visible
11 Dec -3.4 18:12:22 10° WNW 18:15:36 56° SSW 18:15:48 55° S visible
12 Dec -3.8 17:20:05 10° WNW 17:23:23 79° SSW 17:25:59 15° ESE visible
12 Dec -1.1 18:56:59 10° W 18:58:40 19° WSW 18:58:40 19° WSW visible
13 Dec -2.2 18:04:27 10° W 18:07:26 32° SSW 18:09:02 20° SSE visible
14 Dec -2.9 17:12:04 10° WNW 17:15:15 48° SSW 17:18:27 10° SE visible
14 Dec -0.6 18:50:13 10° WSW 18:51:07 11° SW 18:52:01 10° SSW visible
15 Dec -1.0 17:56:48 10° W 17:59:06 18° SW 18:01:22 10° S visible
16 Dec -1.6 17:04:08 10° W 17:06:58 27° SW 17:09:49 10° SSE visible
18 Dec -0.6 16:56:34 10° WSW 16:58:33 15° SW 17:00:30 10° S visible
